Time,TemperatureF,DewpointF,PressureIn,WindDirection,WindDirectionDegrees,WindSpeedMPH,WindSpeedGustMPH,Humidity,HourlyPrecipIn,Conditions,Clouds,dailyrainin,SoftwareType,DateUTC
2013-03-03 00:02:00,23.0,17.0,30.08,WNW,301,3.0,7.0,77,0.00,,,0.00,,2013-03-03 05:02:00,
2013-03-03 00:12:00,23.0,17.0,30.08,WNW,301,3.0,7.0,77,0.00,,,0.00,,2013-03-03 05:12:00,
2013-03-03 00:22:00,23.0,17.0,30.08,NW,315,3.0,5.0,76,0.00,,,0.00,,2013-03-03 05:22:00,
2013-03-03 00:32:00,23.0,17.0,30.08,NW,319,3.0,6.0,76,0.00,,,0.00,,2013-03-03 05:32:00,
2013-03-03 00:42:00,23.0,17.0,30.08,NW,319,3.0,6.0,76,0.00,,,0.00,,2013-03-03 05:42:00,
2013-03-03 00:52:00,23.0,17.0,30.08,NW,317,3.0,4.0,76,0.00,,,0.00,,2013-03-03 05:52:00,
2013-03-03 01:02:00,23.0,17.0,30.09,WNW,301,3.0,5.0,77,0.00,,,0.00,,2013-03-03 06:02:00,
2013-03-03 01:11:00,23.0,17.0,30.09,WNW,301,3.0,5.0,77,0.00,,,0.00,,2013-03-03 06:11:00,
2013-03-03 01:21:00,23.0,17.0,30.09,WNW,296,2.0,6.0,78,0.00,,,0.00,,2013-03-03 06:21:00,
2013-03-03 01:32:00,23.0,17.0,30.08,NW,305,3.0,5.0,79,0.00,,,0.00,,2013-03-03 06:32:00,
2013-03-03 01:42:00,23.0,17.0,30.08,NW,305,3.0,5.0,79,0.00,,,0.00,,2013-03-03 06:42:00,
2013-03-03 01:52:00,23.0,18.0,30.09,NW,310,3.0,6.0,80,0.00,,,0.00,,2013-03-03 06:52:00,
2013-03-03 02:01:00,22.0,16.0,30.08,NW,308,3.0,6.0,79,0.00,,,0.00,,2013-03-03 07:01:00,
2013-03-03 02:11:00,22.0,16.0,30.08,NW,308,3.0,6.0,79,0.00,,,0.00,,2013-03-03 07:11:00,
2013-03-03 02:21:00,22.0,16.0,30.08,NW,306,3.0,5.0,79,0.00,,,0.00,,2013-03-03 07:21:00,
2013-03-03 02:32:00,22.0,17.0,30.08,NW,310,3.0,5.0,80,0.00,,,0.00,,2013-03-03 07:32:00,
2013-03-03 02:42:00,22.0,17.0,30.08,NW,310,3.0,5.0,80,0.00,,,0.00,,2013-03-03 07:42:00,
2013-03-03 02:52:00,22.0,16.0,30.07,WNW,296,4.0,7.0,79,0.00,,,0.00,,2013-03-03 07:52:00,
2013-03-03 03:01:00,22.0,16.0,30.07,NW,305,3.0,6.0,79,0.00,,,0.00,,2013-03-03 08:01:00,
2013-03-03 03:11:00,22.0,16.0,30.07,NW,305,3.0,6.0,79,0.00,,,0.00,,2013-03-03 08:11:00,
2013-03-03 03:21:00,22.0,16.0,30.07,WNW,300,5.0,8.0,79,0.00,,,0.00,,2013-03-03 08:21:00,
2013-03-03 03:32:00,22.0,16.0,30.06,NW,308,4.0,6.0,79,0.00,,,0.00,,2013-03-03 08:32:00,
2013-03-03 03:42:00,22.0,16.0,30.06,NW,308,4.0,6.0,79,0.00,,,0.00,,2013-03-03 08:42:00,
2013-03-03 03:54:00,22.0,16.0,30.06,WNW,295,3.0,6.0,79,0.00,,,0.00,,2013-03-03 08:54:00,
2013-03-03 04:01:00,22.0,17.0,30.06,NW,309,4.0,7.0,80,0.00,,,0.00,,2013-03-03 09:01:00,
2013-03-03 04:12:00,22.0,17.0,30.06,NW,309,4.0,7.0,80,0.00,,,0.00,,2013-03-03 09:12:00,
2013-03-03 04:21:00,22.0,16.0,30.05,WNW,298,4.0,7.0,79,0.00,,,0.00,,2013-03-03 09:21:00,
2013-03-03 04:32:00,22.0,16.0,30.05,WNW,290,3.0,5.0,79,0.00,,,0.00,,2013-03-03 09:32:00,
2013-03-03 04:42:00,22.0,16.0,30.05,WNW,290,3.0,5.0,79,0.00,,,0.00,,2013-03-03 09:42:00,
2013-03-03 04:52:00,22.0,16.0,30.05,WNW,298,3.0,6.0,79,0.00,,,0.00,,2013-03-03 09:52:00,
2013-03-03 05:01:00,22.0,16.0,30.06,NW,314,5.0,8.0,78,0.00,,,0.00,,2013-03-03 10:01:00,
2013-03-03 05:11:00,22.0,16.0,30.06,NW,314,5.0,8.0,78,0.00,,,0.00,,2013-03-03 10:11:00,
2013-03-03 05:21:00,22.0,16.0,30.06,WNW,288,4.0,7.0,78,0.00,,,0.00,,2013-03-03 10:21:00,
2013-03-03 05:32:00,22.0,16.0,30.06,WNW,298,4.0,6.0,79,0.00,,,0.00,,2013-03-03 10:32:00,
2013-03-03 05:42:00,22.0,16.0,30.06,WNW,298,4.0,6.0,79,0.00,,,0.00,,2013-03-03 10:42:00,
2013-03-03 05:52:00,22.0,16.0,30.06,NNW,333,4.0,6.0,78,0.00,,,0.00,,2013-03-03 10:52:00,
2013-03-03 06:01:00,22.0,16.0,30.06,NW,312,4.0,7.0,78,0.00,,,0.00,,2013-03-03 11:01:00,
2013-03-03 06:11:00,22.0,16.0,30.06,NW,312,4.0,7.0,78,0.00,,,0.00,,2013-03-03 11:11:00,
2013-03-03 06:22:00,22.0,16.0,30.06,WNW,301,5.0,8.0,77,0.00,,,0.00,,2013-03-03 11:22:00,
2013-03-03 06:32:00,22.0,16.0,30.06,NNW,328,3.0,7.0,78,0.00,,,0.00,,2013-03-03 11:32:00,
2013-03-03 06:42:00,22.0,16.0,30.06,NNW,328,3.0,7.0,78,0.00,,,0.00,,2013-03-03 11:42:00,
2013-03-03 06:53:00,22.0,16.0,30.06,NW,305,4.0,7.0,78,0.00,,,0.00,,2013-03-03 11:53:00,
2013-03-03 07:02:00,21.0,16.0,30.06,NW,305,3.0,6.0,80,0.00,,,0.00,,2013-03-03 12:02:00,
2013-03-03 07:11:00,21.0,16.0,30.06,NW,305,3.0,6.0,80,0.00,,,0.00,,2013-03-03 12:11:00,
2013-03-03 07:22:00,21.0,16.0,30.07,WNW,288,3.0,6.0,80,0.00,,,0.00,,2013-03-03 12:22:00,
2013-03-03 07:32:00,21.0,16.0,30.07,WNW,301,4.0,7.0,81,0.00,,,0.00,,2013-03-03 12:32:00,
2013-03-03 07:43:00,21.0,16.0,30.07,WNW,301,4.0,7.0,81,0.00,,,0.00,,2013-03-03 12:43:00,
2013-03-03 07:53:00,21.0,16.0,30.07,NW,309,4.0,6.0,81,0.00,,,0.00,,2013-03-03 12:53:00,
2013-03-03 08:01:00,21.0,16.0,30.07,NW,315,4.0,7.0,80,0.00,,,0.00,,2013-03-03 13:01:00,
2013-03-03 08:11:00,21.0,16.0,30.07,NW,315,4.0,7.0,80,0.00,,,0.00,,2013-03-03 13:11:00,
2013-03-03 08:22:00,21.0,16.0,30.07,NW,326,5.0,8.0,80,0.00,,,0.00,,2013-03-03 13:22:00,
2013-03-03 08:32:00,22.0,17.0,30.08,NW,316,5.0,8.0,80,0.00,,,0.00,,2013-03-03 13:32:00,
2013-03-03 08:42:00,22.0,17.0,30.08,NW,316,5.0,8.0,80,0.00,,,0.00,,2013-03-03 13:42:00,
2013-03-03 08:52:00,22.0,17.0,30.08,NW,314,4.0,8.0,80,0.00,,,0.00,,2013-03-03 13:52:00,
2013-03-03 09:02:00,22.0,16.0,30.08,NW,323,5.0,8.0,79,0.00,,,0.00,,2013-03-03 14:02:00,
2013-03-03 09:11:00,22.0,16.0,30.08,NW,323,5.0,8.0,79,0.00,,,0.00,,2013-03-03 14:11:00,
2013-03-03 09:22:00,22.0,16.0,30.08,NNW,333,6.0,10.0,77,0.00,,,0.00,,2013-03-03 14:22:00,
2013-03-03 09:32:00,22.0,15.0,30.08,NW,312,7.0,12.0,74,0.00,,,0.00,,2013-03-03 14:32:00,
2013-03-03 09:42:00,22.0,15.0,30.08,NW,312,7.0,12.0,74,0.00,,,0.00,,2013-03-03 14:42:00,
2013-03-03 09:52:00,22.0,15.0,30.08,NW,315,6.0,11.0,73,0.00,,,0.00,,2013-03-03 14:52:00,
2013-03-03 10:02:00,22.0,15.0,30.08,NW,313,5.0,10.0,74,0.00,,,0.00,,2013-03-03 15:02:00,
2013-03-03 10:11:00,22.0,15.0,30.08,NW,313,5.0,10.0,74,0.00,,,0.00,,2013-03-03 15:11:00,
2013-03-03 10:22:00,22.0,15.0,30.08,NNW,333,5.0,9.0,74,0.00,,,0.00,,2013-03-03 15:22:00,
2013-03-03 10:32:00,22.0,15.0,30.08,NW,323,5.0,9.0,73,0.00,,,0.00,,2013-03-03 15:32:00,
2013-03-03 10:42:00,22.0,15.0,30.08,NW,323,5.0,9.0,73,0.00,,,0.00,,2013-03-03 15:42:00,
2013-03-03 10:52:00,22.0,14.0,30.08,NW,312,5.0,8.0,71,0.00,,,0.00,,2013-03-03 15:52:00,
2013-03-03 11:02:00,22.0,14.0,30.08,NW,314,4.0,9.0,70,0.00,,,0.00,,2013-03-03 16:02:00,
2013-03-03 11:12:00,22.0,14.0,30.08,NW,314,4.0,9.0,70,0.00,,,0.00,,2013-03-03 16:12:00,
2013-03-03 11:22:00,23.0,16.0,30.08,NW,311,5.0,8.0,73,0.00,,,0.00,,2013-03-03 16:22:00,
2013-03-03 11:32:00,23.0,15.0,30.08,WNW,293,4.0,9.0,72,0.00,,,0.00,,2013-03-03 16:32:00,
2013-03-03 11:42:00,23.0,15.0,30.08,WNW,293,4.0,9.0,72,0.00,,,0.00,,2013-03-03 16:42:00,
2013-03-03 11:52:00,23.0,15.0,30.08,NW,308,2.0,8.0,70,0.00,,,0.00,,2013-03-03 16:52:00,
2013-03-03 12:01:00,23.0,15.0,30.08,WSW,250,4.0,7.0,70,0.00,,,0.00,,2013-03-03 17:01:00,
2013-03-03 12:11:00,23.0,14.0,30.08,NW,315,3.0,7.0,68,0.00,,,0.00,,2013-03-03 17:11:00,
2013-03-03 12:22:00,23.0,14.0,30.08,NW,315,3.0,7.0,68,0.00,,,0.00,,2013-03-03 17:22:00,
2013-03-03 12:32:00,24.0,14.0,30.08,NW,315,3.0,8.0,66,0.00,,,0.00,,2013-03-03 17:32:00,
2013-03-03 12:42:00,24.0,14.0,30.08,NW,315,3.0,8.0,66,0.00,,,0.00,,2013-03-03 17:42:00,
2013-03-03 12:52:00,24.0,15.0,30.07,NW,323,4.0,7.0,69,0.00,,,0.00,,2013-03-03 17:52:00,
2013-03-03 13:02:00,24.0,14.0,30.06,WNW,285,3.0,7.0,66,0.00,,,0.00,,2013-03-03 18:02:00,
2013-03-03 13:11:00,24.0,14.0,30.06,WNW,285,3.0,7.0,66,0.00,,,0.00,,2013-03-03 18:11:00,
2013-03-03 13:22:00,24.0,14.0,30.06,WNW,294,3.0,8.0,64,0.00,,,0.00,,2013-03-03 18:22:00,
2013-03-03 13:32:00,25.0,14.0,30.05,WNW,283,3.0,7.0,63,0.00,,,0.00,,2013-03-03 18:32:00,
2013-03-03 13:42:00,25.0,14.0,30.05,WNW,283,3.0,7.0,63,0.00,,,0.00,,2013-03-03 18:42:00,
2013-03-03 13:52:00,26.0,16.0,30.05,WNW,297,5.0,8.0,66,0.00,,,0.00,,2013-03-03 18:52:00,
2013-03-03 14:02:00,26.0,16.0,30.04,NW,313,4.0,7.0,64,0.00,,,0.00,,2013-03-03 19:02:00,
2013-03-03 14:11:00,26.0,16.0,30.04,NW,313,4.0,7.0,64,0.00,,,0.00,,2013-03-03 19:11:00,
2013-03-03 14:22:00,26.0,16.0,30.04,West,278,2.0,7.0,65,0.00,,,0.00,,2013-03-03 19:22:00,
2013-03-03 14:32:00,27.0,16.0,30.04,WNW,283,4.0,9.0,63,0.00,,,0.00,,2013-03-03 19:32:00,
2013-03-03 14:42:00,27.0,16.0,30.04,WNW,283,4.0,9.0,63,0.00,,,0.00,,2013-03-03 19:42:00,
2013-03-03 14:52:00,27.0,15.0,30.04,WNW,291,4.0,10.0,60,0.00,,,0.00,,2013-03-03 19:52:00,
2013-03-03 15:01:00,27.0,16.0,30.03,WNW,290,3.0,6.0,63,0.00,,,0.00,,2013-03-03 20:01:00,
2013-03-03 15:11:00,27.0,16.0,30.03,WNW,290,3.0,6.0,63,0.00,,,0.00,,2013-03-03 20:11:00,
2013-03-03 15:22:00,27.0,16.0,30.03,WNW,293,3.0,9.0,62,0.00,,,0.00,,2013-03-03 20:22:00,
2013-03-03 15:32:00,28.0,16.0,30.03,NW,320,3.0,9.0,59,0.00,,,0.00,,2013-03-03 20:32:00,
2013-03-03 15:42:00,28.0,16.0,30.03,NW,320,3.0,9.0,59,0.00,,,0.00,,2013-03-03 20:42:00,
2013-03-03 15:53:00,28.0,15.0,30.03,NW,318,4.0,8.0,58,0.00,,,0.00,,2013-03-03 20:53:00,
2013-03-03 16:02:00,28.0,15.0,30.03,NW,308,5.0,10.0,57,0.00,,,0.00,,2013-03-03 21:02:00,
2013-03-03 16:12:00,28.0,15.0,30.03,NW,308,5.0,10.0,57,0.00,,,0.00,,2013-03-03 21:12:00,
2013-03-03 16:22:00,28.0,16.0,30.03,WNW,295,5.0,8.0,60,0.00,,,0.00,,2013-03-03 21:22:00,
2013-03-03 16:32:00,29.0,16.0,30.03,West,278,4.0,8.0,57,0.00,,,0.00,,2013-03-03 21:32:00,
2013-03-03 16:42:00,29.0,16.0,30.03,West,278,4.0,8.0,57,0.00,,,0.00,,2013-03-03 21:42:00,
2013-03-03 16:52:00,28.0,15.0,30.03,WNW,301,5.0,8.0,57,0.00,,,0.00,,2013-03-03 21:52:00,
2013-03-03 17:02:00,28.0,15.0,30.03,NW,309,5.0,9.0,57,0.00,,,0.00,,2013-03-03 22:02:00,
2013-03-03 17:11:00,28.0,15.0,30.03,NW,309,5.0,9.0,57,0.00,,,0.00,,2013-03-03 22:11:00,
2013-03-03 17:22:00,29.0,15.0,30.03,NW,318,4.0,8.0,55,0.00,,,0.00,,2013-03-03 22:22:00,
2013-03-03 17:32:00,29.0,15.0,30.04,WNW,298,3.0,11.0,56,0.00,,,0.00,,2013-03-03 22:32:00,
2013-03-03 17:42:00,29.0,15.0,30.04,WNW,298,3.0,11.0,56,0.00,,,0.00,,2013-03-03 22:42:00,
2013-03-03 17:52:00,29.0,14.0,30.04,WNW,287,4.0,7.0,53,0.00,,,0.00,,2013-03-03 22:52:00,
2013-03-03 18:01:00,28.0,14.0,30.04,WNW,298,4.0,7.0,56,0.00,,,0.00,,2013-03-03 23:01:00,
2013-03-03 18:11:00,28.0,14.0,30.04,WNW,298,4.0,7.0,56,0.00,,,0.00,,2013-03-03 23:11:00,
2013-03-03 18:21:00,28.0,15.0,30.05,WNW,296,3.0,6.0,57,0.00,,,0.00,,2013-03-03 23:21:00,
2013-03-03 18:32:00,27.0,15.0,30.05,NW,308,4.0,7.0,59,0.00,,,0.00,,2013-03-03 23:32:00,
2013-03-03 18:42:00,27.0,15.0,30.05,NW,308,4.0,7.0,59,0.00,,,0.00,,2013-03-03 23:42:00,
2013-03-03 18:52:00,27.0,15.0,30.05,WNW,299,3.0,6.0,60,0.00,,,0.00,,2013-03-03 23:52:00,
2013-03-03 19:02:00,27.0,15.0,30.06,NW,309,3.0,5.0,59,0.00,,,0.00,,2013-03-04 00:02:00,
2013-03-03 19:11:00,27.0,15.0,30.06,NW,309,3.0,5.0,59,0.00,,,0.00,,2013-03-04 00:11:00,
2013-03-03 19:22:00,27.0,16.0,30.06,NW,307,2.0,5.0,63,0.00,,,0.00,,2013-03-04 00:22:00,
2013-03-03 19:32:00,26.0,16.0,30.06,NW,305,2.0,3.0,66,0.00,,,0.00,,2013-03-04 00:32:00,
2013-03-03 19:42:00,26.0,16.0,30.06,NW,305,2.0,3.0,66,0.00,,,0.00,,2013-03-04 00:42:00,
2013-03-03 19:52:00,26.0,17.0,30.06,NW,305,1.0,2.0,69,0.00,,,0.00,,2013-03-04 00:52:00,
2013-03-03 20:01:00,25.0,19.0,30.07,NW,305,0.0,1.0,76,0.00,,,0.00,,2013-03-04 01:01:00,
2013-03-03 20:12:00,25.0,19.0,30.07,NW,305,0.0,1.0,76,0.00,,,0.00,,2013-03-04 01:12:00,
2013-03-03 20:22:00,26.0,20.0,30.07,NW,305,0.0,0.0,78,0.00,,,0.00,,2013-03-04 01:22:00,
2013-03-03 20:32:00,24.0,18.0,30.07,NW,305,0.0,0.0,76,0.00,,,0.00,,2013-03-04 01:32:00,
2013-03-03 20:42:00,24.0,18.0,30.07,NW,305,0.0,0.0,76,0.00,,,0.00,,2013-03-04 01:42:00,
2013-03-03 20:52:00,23.0,18.0,30.08,NW,305,0.0,0.0,82,0.00,,,0.00,,2013-03-04 01:52:00,
2013-03-03 21:01:00,23.0,18.0,30.08,NW,305,0.0,0.0,82,0.00,,,0.00,,2013-03-04 02:01:00,
2013-03-03 21:11:00,23.0,18.0,30.08,NW,305,0.0,0.0,82,0.00,,,0.00,,2013-03-04 02:11:00,
2013-03-03 21:22:00,22.0,16.0,30.08,NW,305,0.0,0.0,79,0.00,,,0.00,,2013-03-04 02:22:00,
2013-03-03 21:32:00,22.0,17.0,30.08,NW,305,0.0,0.0,81,0.00,,,0.00,,2013-03-04 02:32:00,
2013-03-03 21:42:00,22.0,17.0,30.08,NW,305,0.0,0.0,81,0.00,,,0.00,,2013-03-04 02:42:00,
2013-03-03 21:53:00,21.0,16.0,30.08,NW,304,0.0,0.0,81,0.00,,,0.00,,2013-03-04 02:53:00,
2013-03-03 22:02:00,21.0,17.0,30.08,NW,305,0.0,1.0,83,0.00,,,0.00,,2013-03-04 03:02:00,
2013-03-03 22:11:00,21.0,17.0,30.08,NW,305,0.0,1.0,83,0.00,,,0.00,,2013-03-04 03:11:00,
2013-03-03 22:22:00,20.0,15.0,30.08,NW,305,0.0,1.0,82,0.00,,,0.00,,2013-03-04 03:22:00,
2013-03-03 22:32:00,20.0,16.0,30.08,NW,305,0.0,0.0,85,0.00,,,0.00,,2013-03-04 03:32:00,
2013-03-03 22:42:00,20.0,16.0,30.08,WNW,294,0.0,1.0,85,0.00,,,0.00,,2013-03-04 03:42:00,
2013-03-03 22:53:00,20.0,16.0,30.08,WNW,294,0.0,1.0,85,0.00,,,0.00,,2013-03-04 03:53:00,
2013-03-03 23:01:00,21.0,18.0,30.08,WNW,294,0.0,0.0,87,0.00,,,0.00,,2013-03-04 04:01:00,
2013-03-03 23:11:00,21.0,18.0,30.08,WNW,294,0.0,0.0,87,0.00,,,0.00,,2013-03-04 04:11:00,
2013-03-03 23:22:00,21.0,18.0,30.08,WNW,294,0.0,0.0,87,0.00,,,0.00,,2013-03-04 04:22:00,
2013-03-03 23:32:00,21.0,17.0,30.08,WSW,248,0.0,1.0,85,0.00,,,0.00,,2013-03-04 04:32:00,
2013-03-03 23:42:00,21.0,17.0,30.08,WSW,248,0.0,1.0,85,0.00,,,0.00,,2013-03-04 04:42:00,
2013-03-03 23:52:00,21.0,16.0,30.08,WNW,283,0.0,1.0,80,0.00,,,0.00,,2013-03-04 04:52:00,